This is the latest recevied weather packets stored in our database for station/object WX2NJ. If no packets are shown the sender has not sent any weather packets the latest 10 day(s).
| Time | Temp. | Humidity | Pressure | Rain* | Wind** | Luminosity | Snow |
|---|---|---|---|---|---|---|---|
| 1778108248 | 21.67° C | 69% | 1011.3 hPa | 0 mm | - | 11 W/m² | - |
| 1778107945 | 21.67° C | 69% | 1010.9 hPa | 0 mm | - | 15 W/m² | - |
| 1778107641 | 21.67° C | 69% | 1011.1 hPa | 0 mm | - | 26 W/m² | - |
| 1778107339 | 21.67° C | 69% | 1011.1 hPa | 0 mm | - | 26 W/m² | - |
| 1778107035 | 22.22° C | 69% | 1011.1 hPa | 0 mm | - | 28 W/m² | - |
| 1778106730 | 22.22° C | 68% | 1010.8 hPa | 0 mm | - | 35 W/m² | - |
| 1778106428 | 22.22° C | 68% | 1011.1 hPa | 0 mm | - | 22 W/m² | - |
| 1778106123 | 22.22° C | 68% | 1011.2 hPa | 0 mm | - | 33 W/m² | - |
| 1778105821 | 22.22° C | 67% | 1011 hPa | 0 mm | - | 42 W/m² | - |
| 1778105519 | 22.22° C | 67% | 1011 hPa | 0 mm | - | 89 W/m² | - |
| 1778105216 | 22.22° C | 67% | 1010.9 hPa | 0 mm | - | 97 W/m² | - |
| 1778104911 | 22.22° C | 67% | 1010.9 hPa | 0 mm | - | 71 W/m² | - |
| 1778104608 | 22.22° C | 66% | 1011 hPa | 0 mm | - | 72 W/m² | - |
| 1778104303 | 22.78° C | 66% | 1011.1 hPa | 0 mm | - | 99 W/m² | - |
| 1778104000 | 22.22° C | 67% | 1010.8 hPa | 0 mm | - | 114 W/m² | - |
| 1778103698 | 22.22° C | 68% | 1011 hPa | 0 mm | - | 125 W/m² | - |
| 1778103396 | 22.22° C | 67% | 1010.8 hPa | 0 mm | - | 106 W/m² | - |
| 1778103093 | 22.22° C | 68% | 1010.8 hPa | 0 mm | - | 87 W/m² | - |
| 1778102790 | 22.22° C | 68% | 1010.9 hPa | 0 mm | - | 86 W/m² | - |
| 1778102485 | 22.22° C | 68% | 1010.9 hPa | 0 mm | - | 91 W/m² | - |
| 1778102181 | 22.22° C | 67% | 1010.6 hPa | 0 mm | - | 99 W/m² | - |
| 1778101878 | 22.22° C | 68% | 1010.6 hPa | 0 mm | - | 144 W/m² | - |
| 1778101575 | 21.67° C | 68% | 1010.6 hPa | 0 mm | - | 94 W/m² | - |
| 1778101271 | 21.67° C | 68% | 1010.7 hPa | 0 mm | - | 97 W/m² | - |
| 1778100968 | 21.67° C | 68% | 1010.4 hPa | 0 mm | - | 98 W/m² | - |
* Rain latest hour (hover to see other rain measurements)
** Current wind speed in m/s (hover to see current wind gust speed)